AXX256 KBFL-KLAS

Flight info

Callsign AXX256
Flight time N/A
Altitude 0
Route KTSP KMHV KEDW KNID NV65 KINS
Aircraft PC12/L-VGD/C

Departure

Time N/A
Airport Meadows Field (KBFL)

Arrival

Time 2026-05-01 08:17
Airport Harry Reid International Airport (KLAS)
Time Latitude Longitude Altitude Speed Heading
2026-05-01 07:23 35.68081 -117.70283 2270 ft 0 kts 43°
2026-05-01 07:24 35.68084 -117.70280 2270 ft 1 kts 43°
2026-05-01 07:24 35.68100 -117.70261 2270 ft 4 kts 43°
2026-05-01 07:24 35.68130 -117.70229 2268 ft 6 kts 42°
2026-05-01 07:25 35.68207 -117.70145 2265 ft 33 kts 44°
2026-05-01 07:25 35.68576 -117.69721 2285 ft 103 kts 44°
2026-05-01 07:25 35.69163 -117.68984 2497 ft 136 kts 46°
2026-05-01 07:25 35.69798 -117.68014 2851 ft 157 kts 53°
2026-05-01 07:26 35.70452 -117.66863 3259 ft 169 kts 58°
2026-05-01 07:26 35.71032 -117.65564 3668 ft 179 kts 61°
2026-05-01 07:26 35.71676 -117.64188 3958 ft 194 kts 59°
2026-05-01 07:26 35.72423 -117.62718 4215 ft 208 kts 57°
2026-05-01 07:27 35.73244 -117.61197 4467 ft 217 kts 56°
2026-05-01 07:27 35.74109 -117.59639 4716 ft 223 kts 55°
2026-05-01 07:27 35.74989 -117.58075 4959 ft 224 kts 54°
2026-05-01 07:27 35.75876 -117.56511 5202 ft 221 kts 54°
2026-05-01 07:28 35.76758 -117.54964 5446 ft 220 kts 53°
2026-05-01 07:28 35.77634 -117.53434 5689 ft 218 kts 53°
2026-05-01 07:28 35.78497 -117.51928 5929 ft 217 kts 53°
2026-05-01 07:28 35.79367 -117.50410 6171 ft 215 kts 52°
2026-05-01 07:29 35.80232 -117.48903 6409 ft 214 kts 52°
2026-05-01 07:29 35.81077 -117.47430 6638 ft 212 kts 52°
2026-05-01 07:29 35.81928 -117.45946 6851 ft 210 kts 52°
2026-05-01 07:29 35.82761 -117.44494 7096 ft 208 kts 52°
2026-05-01 07:30 35.83598 -117.43034 7332 ft 207 kts 52°
2026-05-01 07:30 35.84431 -117.41582 7564 ft 207 kts 52°
2026-05-01 07:30 35.85250 -117.40151 7798 ft 207 kts 52°
2026-05-01 07:30 35.86085 -117.38689 8035 ft 206 kts 52°
2026-05-01 07:31 35.86904 -117.37252 8266 ft 207 kts 52°
2026-05-01 07:31 35.89456 -117.32787 8970 ft 216 kts 52°
2026-05-01 07:32 35.91193 -117.29742 9424 ft 219 kts 52°
2026-05-01 07:32 35.92083 -117.28181 9474 ft 228 kts 53°
2026-05-01 07:33 35.93963 -117.24877 9462 ft 241 kts 53°
2026-05-01 07:33 35.94936 -117.23164 9457 ft 245 kts 53°
2026-05-01 07:33 35.96913 -117.19685 9473 ft 249 kts 53°
2026-05-01 07:34 35.97911 -117.17928 9481 ft 250 kts 53°
2026-05-01 07:34 35.99906 -117.14414 9498 ft 251 kts 53°
2026-05-01 07:34 36.00917 -117.12629 9490 ft 251 kts 53°
2026-05-01 07:35 36.01916 -117.10867 9503 ft 250 kts 53°
2026-05-01 07:35 36.02907 -117.09119 9515 ft 250 kts 53°
2026-05-01 07:35 36.03904 -117.07359 9528 ft 249 kts 53°
2026-05-01 07:35 36.04896 -117.05611 9540 ft 250 kts 53°
2026-05-01 07:36 36.05901 -117.03835 9579 ft 251 kts 53°
2026-05-01 07:36 36.06904 -117.02059 9569 ft 252 kts 53°
2026-05-01 07:36 36.07906 -117.00285 9569 ft 252 kts 53°
2026-05-01 07:36 36.08910 -116.98510 9549 ft 252 kts 53°
2026-05-01 07:37 36.10911 -116.94969 9542 ft 251 kts 53°
2026-05-01 07:37 36.11905 -116.93208 9539 ft 250 kts 53°
2026-05-01 07:37 36.12901 -116.91441 9539 ft 250 kts 53°
2026-05-01 07:38 36.13907 -116.89657 9533 ft 251 kts 53°
2026-05-01 07:38 36.14893 -116.87906 9525 ft 251 kts 53°
2026-05-01 07:38 36.16888 -116.84360 9513 ft 251 kts 53°
2026-05-01 07:39 36.17886 -116.82587 9508 ft 251 kts 53°
2026-05-01 07:39 36.18887 -116.80804 9502 ft 251 kts 53°
2026-05-01 07:39 36.20877 -116.77263 9486 ft 251 kts 53°
2026-05-01 07:40 36.21869 -116.75496 9472 ft 251 kts 53°
2026-05-01 07:40 36.22868 -116.73714 9458 ft 248 kts 53°
2026-05-01 07:40 36.23837 -116.71986 9451 ft 246 kts 53°
2026-05-01 07:40 36.24817 -116.70239 9451 ft 245 kts 53°
2026-05-01 07:41 36.25785 -116.68512 9455 ft 244 kts 53°
2026-05-01 07:41 36.26752 -116.66785 9457 ft 243 kts 53°
2026-05-01 07:41 36.28664 -116.63364 9460 ft 242 kts 53°
2026-05-01 07:42 36.29633 -116.61632 9461 ft 242 kts 53°
2026-05-01 07:42 36.30579 -116.59940 9462 ft 242 kts 53°
2026-05-01 07:42 36.31538 -116.58225 9462 ft 242 kts 53°
2026-05-01 07:42 36.32502 -116.56497 9462 ft 242 kts 53°
2026-05-01 07:43 36.33458 -116.54785 9460 ft 242 kts 53°
2026-05-01 07:43 36.34412 -116.53072 9459 ft 242 kts 53°
2026-05-01 07:43 36.36315 -116.49660 9455 ft 242 kts 53°
2026-05-01 07:44 36.38229 -116.46221 9456 ft 242 kts 53°
2026-05-01 07:44 36.40143 -116.42781 9458 ft 241 kts 53°
2026-05-01 07:45 36.41085 -116.41085 9459 ft 241 kts 53°
2026-05-01 07:45 36.42048 -116.39349 9456 ft 242 kts 53°
2026-05-01 07:45 36.42998 -116.37639 9344 ft 246 kts 53°
2026-05-01 07:45 36.43984 -116.35860 9223 ft 249 kts 53°
2026-05-01 07:46 36.44969 -116.34082 9103 ft 251 kts 54°
2026-05-01 07:46 36.45955 -116.32303 8985 ft 253 kts 54°
2026-05-01 07:46 36.47964 -116.28674 8745 ft 254 kts 54°
2026-05-01 07:47 36.48964 -116.26867 8625 ft 255 kts 54°
2026-05-01 07:47 36.49966 -116.25055 8505 ft 255 kts 54°
2026-05-01 07:47 36.50960 -116.23258 8388 ft 255 kts 54°
2026-05-01 07:47 36.51964 -116.21439 8271 ft 255 kts 54°
2026-05-01 07:48 36.53716 -116.18219 8016 ft 196 kts 54°
2026-05-01 07:48 36.54456 -116.16899 7883 ft 175 kts 54°
2026-05-01 07:48 36.55104 -116.15730 7737 ft 152 kts 54°
2026-05-01 07:49 36.55670 -116.14704 7367 ft 137 kts 53°
2026-05-01 07:49 36.56686 -116.12868 6637 ft 125 kts 53°
2026-05-01 07:49 36.57167 -116.11995 6281 ft 121 kts 53°
2026-05-01 07:50 36.57639 -116.11140 5921 ft 117 kts 52°
2026-05-01 07:50 36.58605 -116.09393 4770 ft 131 kts 53°
2026-05-01 07:50 36.59072 -116.08444 4329 ft 120 kts 65°
2026-05-01 07:51 36.59296 -116.07511 4035 ft 110 kts 70°
2026-05-01 07:51 36.59487 -116.06548 3755 ft 120 kts 67°
2026-05-01 07:51 36.59816 -116.05642 3622 ft 107 kts 56°
2026-05-01 07:52 36.60583 -116.04470 3351 ft 84 kts 38°
2026-05-01 07:52 36.61022 -116.04038 3222 ft 71 kts 32°
2026-05-01 07:52 36.61356 -116.03761 3221 ft 38 kts 34°
2026-05-01 07:53 36.61404 -116.03721 3224 ft 0 kts 34°
2026-05-01 07:55 36.61612 -116.03545 3241 ft 70 kts 32°
2026-05-01 07:55 36.62474 -116.02227 3829 ft 123 kts 83°
2026-05-01 07:56 36.62017 -115.98088 4595 ft 189 kts 96°
2026-05-01 07:56 36.61410 -115.94739 5063 ft 208 kts 105°
2026-05-01 07:57 36.60953 -115.93019 5307 ft 212 kts 106°
2026-05-01 07:57 36.59999 -115.89465 5588 ft 226 kts 106°
2026-05-01 07:58 36.59243 -115.85555 5589 ft 238 kts 98°
2026-05-01 07:58 36.58675 -115.81482 5584 ft 238 kts 92°
2026-05-01 07:59 36.58409 -115.77527 5688 ft 195 kts 89°
2026-05-01 07:59 36.58406 -115.74895 5154 ft 121 kts 86°
2026-05-01 08:00 36.58453 -115.71474 3843 ft 93 kts 87°
2026-05-01 08:01 36.58437 -115.69254 3178 ft 63 kts 91°
2026-05-01 08:01 36.58429 -115.68943 3174 ft 3 kts 91°
2026-05-01 08:01 36.58429 -115.68941 3174 ft 0 kts 91°
2026-05-01 08:03 36.58419 -115.68655 3172 ft 71 kts 91°
2026-05-01 08:04 36.58396 -115.66599 3434 ft 152 kts 90°
2026-05-01 08:04 36.57375 -115.64137 4046 ft 188 kts 137°
2026-05-01 08:05 36.55199 -115.61887 4543 ft 215 kts 137°
2026-05-01 08:05 36.54221 -115.60451 4794 ft 221 kts 127°
2026-05-01 08:05 36.53280 -115.58912 5038 ft 225 kts 126°
2026-05-01 08:06 36.51388 -115.55776 5499 ft 231 kts 126°
2026-05-01 08:06 36.49379 -115.52453 5531 ft 248 kts 126°
2026-05-01 08:07 36.47226 -115.49022 5533 ft 255 kts 125°
2026-05-01 08:07 36.44973 -115.45601 5553 ft 257 kts 126°
2026-05-01 08:08 36.43817 -115.43883 5557 ft 258 kts 126°
2026-05-01 08:08 36.41494 -115.40474 5553 ft 260 kts 130°
2026-05-01 08:09 36.38603 -115.37719 5558 ft 263 kts 140°
2026-05-01 08:09 36.37122 -115.36365 5557 ft 263 kts 140°
2026-05-01 08:09 36.35646 -115.35023 5553 ft 263 kts 139°
2026-05-01 08:10 36.32701 -115.32345 5549 ft 263 kts 140°
2026-05-01 08:10 36.29740 -115.29637 5543 ft 263 kts 140°
2026-05-01 08:11 36.26690 -115.27106 5520 ft 266 kts 152°
2026-05-01 08:11 36.23381 -115.25105 5507 ft 266 kts 151°
2026-05-01 08:12 36.20050 -115.23106 5506 ft 266 kts 151°
2026-05-01 08:12 36.18373 -115.22109 5506 ft 266 kts 151°
2026-05-01 08:12 36.14918 -115.20662 5482 ft 270 kts 186°
2026-05-01 08:13 36.13210 -115.21358 5499 ft 235 kts 200°
2026-05-01 08:13 36.11825 -115.22015 5490 ft 185 kts 200°
2026-05-01 08:13 36.09933 -115.22958 5542 ft 131 kts 201°
2026-05-01 08:14 36.09087 -115.23372 5571 ft 127 kts 197°
2026-05-01 08:14 36.08249 -115.23678 5611 ft 123 kts 188°
2026-05-01 08:14 36.07399 -115.23655 5608 ft 123 kts 163°
2026-05-01 08:14 36.06657 -115.23212 5403 ft 116 kts 137°
2026-05-01 08:15 36.06176 -115.22479 5069 ft 110 kts 104°
2026-05-01 08:15 36.06150 -115.20685 4161 ft 104 kts 79°
2026-05-01 08:15 36.06230 -115.19807 3731 ft 103 kts 79°
2026-05-01 08:16 36.06323 -115.18946 3308 ft 103 kts 77°
2026-05-01 08:16 36.06487 -115.18113 2903 ft 97 kts 60°
2026-05-01 08:16 36.06921 -115.17515 2498 ft 94 kts 38°
2026-05-01 08:16 36.07430 -115.17112 2248 ft 78 kts 25°
2026-05-01 08:17 36.07836 -115.16878 2179 ft 48 kts 23°
2026-05-01 08:17 36.08078 -115.16735 2170 ft 31 kts 26°
2026-05-01 08:17 36.08215 -115.16707 2167 ft 14 kts 312°
2026-05-01 08:17 36.08237 -115.16743 2167 ft 2 kts 299°
2026-05-01 08:18 36.08250 -115.16772 2168 ft 5 kts 296°
2026-05-01 08:18 36.08295 -115.16850 2168 ft 7 kts 14°
2026-05-01 08:19 36.08417 -115.16774 2163 ft 11 kts 26°
2026-05-01 08:19 36.08494 -115.16731 2161 ft 12 kts 24°
2026-05-01 08:19 36.08572 -115.16682 2158 ft 12 kts 25°
2026-05-01 08:19 36.08654 -115.16644 2155 ft 12 kts 10°
2026-05-01 08:20 36.08734 -115.16663 2154 ft 0 kts 348°